Time,TemperatureF,DewpointF,PressureIn,WindDirection,WindDirectionDegrees,WindSpeedMPH,WindSpeedGustMPH,Humidity,HourlyPrecipIn,Conditions,Clouds,dailyrainin,SoftwareType,DateUTC
2014-01-03 00:00:00,51.2,39.0,30.96,SSW,199,0.0,1.2,63,0.00,NA,NA,-99.99,BCS,2014-01-03 08:00:00,
2014-01-03 00:10:00,51.2,39.0,30.96,SSW,199,0.0,0.0,63,0.00,NA,NA,-99.99,BCS,2014-01-03 08:10:00,
2014-01-03 00:15:00,51.0,39.0,30.96,SSW,199,0.0,0.0,63,0.00,NA,NA,-99.99,BCS,2014-01-03 08:15:00,
2014-01-03 00:25:00,51.0,39.0,30.95,SSW,199,0.0,0.0,64,0.00,NA,NA,-99.99,BCS,2014-01-03 08:25:00,
2014-01-03 00:30:00,51.1,39.0,30.95,SSW,199,0.0,0.3,63,0.00,NA,NA,-99.99,BCS,2014-01-03 08:30:00,
2014-01-03 00:35:00,51.1,39.0,30.95,SSW,199,0.0,0.0,63,0.00,NA,NA,-99.99,BCS,2014-01-03 08:35:00,
2014-01-03 00:40:00,51.2,39.0,30.95,SSW,199,0.0,0.0,63,0.00,NA,NA,-99.99,BCS,2014-01-03 08:40:00,
2014-01-03 00:45:00,51.4,38.0,30.95,SSW,199,0.0,0.0,62,0.00,NA,NA,-99.99,BCS,2014-01-03 08:45:00,
2014-01-03 00:50:00,51.8,39.0,30.95,West,260,1.8,2.1,61,0.00,NA,NA,-99.99,BCS,2014-01-03 08:50:00,
2014-01-03 01:00:00,52.2,38.0,30.96,WNW,292,1.2,2.1,60,0.00,NA,NA,-99.99,BCS,2014-01-03 09:00:00,
2014-01-03 01:05:00,51.8,39.0,30.96,WNW,293,0.0,1.5,60,0.00,NA,NA,-99.99,BCS,2014-01-03 09:05:00,
2014-01-03 01:10:00,51.5,39.0,30.96,WNW,293,0.6,1.5,61,0.00,NA,NA,-99.99,BCS,2014-01-03 09:10:00,
2014-01-03 01:15:00,51.2,38.0,30.96,WNW,293,0.0,0.9,61,0.00,NA,NA,-99.99,BCS,2014-01-03 09:15:00,
2014-01-03 01:20:00,50.8,38.0,30.96,WNW,292,0.0,0.3,62,0.00,NA,NA,-99.99,BCS,2014-01-03 09:20:00,
2014-01-03 01:25:00,50.5,38.0,30.96,WNW,292,0.0,0.0,62,0.00,NA,NA,-99.99,BCS,2014-01-03 09:25:00,
2014-01-03 01:30:00,50.3,37.0,30.96,WNW,292,0.0,0.0,63,0.00,NA,NA,-99.99,BCS,2014-01-03 09:30:00,
2014-01-03 01:40:00,50.3,38.0,30.96,WNW,292,0.0,0.0,63,0.00,NA,NA,-99.99,BCS,2014-01-03 09:40:00,
2014-01-03 01:50:00,50.3,38.0,30.96,WNW,292,0.0,0.0,64,0.00,NA,NA,-99.99,BCS,2014-01-03 09:50:00,
2014-01-03 02:00:00,50.1,38.0,30.97,WNW,292,0.0,0.0,65,0.00,NA,NA,-99.99,BCS,2014-01-03 10:00:00,
2014-01-03 02:05:00,49.9,39.0,30.96,WNW,292,0.0,0.0,66,0.00,NA,NA,-99.99,BCS,2014-01-03 10:05:00,
2014-01-03 02:10:00,49.6,39.0,30.96,WNW,292,0.0,0.0,66,0.00,NA,NA,-99.99,BCS,2014-01-03 10:10:00,
2014-01-03 02:20:00,49.8,39.0,30.97,WNW,292,0.0,0.0,66,0.00,NA,NA,-99.99,BCS,2014-01-03 10:20:00,
2014-01-03 02:30:00,49.5,39.0,30.96,WNW,292,0.0,0.0,66,0.00,NA,NA,-99.99,BCS,2014-01-03 10:30:00,
2014-01-03 02:35:00,49.3,38.0,30.96,WNW,292,0.0,0.3,67,0.00,NA,NA,-99.99,BCS,2014-01-03 10:35:00,
2014-01-03 02:40:00,49.2,39.0,30.96,WNW,291,0.0,1.2,68,0.00,NA,NA,-99.99,BCS,2014-01-03 10:40:00,
2014-01-03 02:45:00,49.2,39.0,30.96,WNW,291,0.0,0.3,68,0.00,NA,NA,-99.99,BCS,2014-01-03 10:45:00,
2014-01-03 02:55:00,49.0,39.0,30.96,West,265,0.0,1.5,69,0.00,NA,NA,-99.99,BCS,2014-01-03 10:55:00,
2014-01-03 03:00:00,48.9,39.0,30.96,West,265,0.0,0.3,69,0.00,NA,NA,-99.99,BCS,2014-01-03 11:00:00,
2014-01-03 03:10:00,48.9,39.0,30.96,West,266,0.0,0.0,69,0.00,NA,NA,-99.99,BCS,2014-01-03 11:10:00,
2014-01-03 03:15:00,48.5,39.0,30.96,West,266,0.0,0.0,69,0.00,NA,NA,-99.99,BCS,2014-01-03 11:15:00,
2014-01-03 03:20:00,48.3,38.0,30.96,West,266,0.0,0.0,70,0.00,NA,NA,-99.99,BCS,2014-01-03 11:20:00,
2014-01-03 03:25:00,48.2,39.0,30.96,West,266,0.0,0.3,71,0.00,NA,NA,-99.99,BCS,2014-01-03 11:25:00,
2014-01-03 03:30:00,48.1,39.0,30.96,West,266,0.0,0.0,71,0.00,NA,NA,-99.99,BCS,2014-01-03 11:30:00,
2014-01-03 03:40:00,48.2,39.0,30.96,West,265,0.6,1.5,72,0.00,NA,NA,-99.99,BCS,2014-01-03 11:40:00,
2014-01-03 03:50:00,48.6,41.0,30.95,West,265,0.0,0.6,74,0.00,NA,NA,-99.99,BCS,2014-01-03 11:50:00,
2014-01-03 03:55:00,48.7,41.0,30.95,West,265,0.0,0.3,75,0.00,NA,NA,-99.99,BCS,2014-01-03 11:55:00,
2014-01-03 04:00:00,48.6,41.0,30.95,West,265,0.0,0.0,75,0.00,NA,NA,-99.99,BCS,2014-01-03 12:00:00,
2014-01-03 04:10:00,48.4,40.0,30.95,West,261,0.9,1.5,75,0.00,NA,NA,-99.99,BCS,2014-01-03 12:10:00,
2014-01-03 04:15:00,48.3,41.0,30.95,West,261,0.6,1.2,75,0.00,NA,NA,-99.99,BCS,2014-01-03 12:15:00,
2014-01-03 04:20:00,48.4,40.0,30.94,SW,231,0.3,1.8,75,0.00,NA,NA,-99.99,BCS,2014-01-03 12:20:00,
2014-01-03 04:30:00,48.5,40.0,30.94,SW,231,0.0,0.0,75,0.00,NA,NA,-99.99,BCS,2014-01-03 12:30:00,
2014-01-03 04:35:00,48.4,40.0,30.94,SW,231,0.0,0.0,75,0.00,NA,NA,-99.99,BCS,2014-01-03 12:35:00,
2014-01-03 04:40:00,48.3,40.0,30.94,SW,231,0.0,0.0,75,0.00,NA,NA,-99.99,BCS,2014-01-03 12:40:00,
2014-01-03 04:45:00,48.2,40.0,30.94,SW,231,0.0,0.0,75,0.00,NA,NA,-99.99,BCS,2014-01-03 12:45:00,
2014-01-03 04:50:00,48.1,40.0,30.94,SW,231,0.0,0.3,75,0.00,NA,NA,-99.99,BCS,2014-01-03 12:50:00,
2014-01-03 04:55:00,47.7,40.0,30.94,SW,231,0.3,1.5,75,0.00,NA,NA,-99.99,BCS,2014-01-03 12:55:00,
2014-01-03 05:00:00,47.5,41.0,30.94,SW,231,0.3,1.2,76,0.00,NA,NA,-99.99,BCS,2014-01-03 13:00:00,
2014-01-03 05:05:00,47.3,40.0,30.94,SW,231,1.2,1.5,76,0.00,NA,NA,-99.99,BCS,2014-01-03 13:05:00,
2014-01-03 05:15:00,47.7,41.0,30.94,SW,231,0.9,1.5,78,0.00,NA,NA,-99.99,BCS,2014-01-03 13:15:00,
2014-01-03 05:20:00,47.8,41.0,30.94,SW,230,0.6,1.2,78,0.00,NA,NA,-99.99,BCS,2014-01-03 13:20:00,
2014-01-03 05:25:00,47.9,41.0,30.94,SW,230,1.2,1.5,78,0.00,NA,NA,-99.99,BCS,2014-01-03 13:25:00,
2014-01-03 05:30:00,48.1,41.0,30.94,SW,230,1.2,1.5,77,0.00,NA,NA,-99.99,BCS,2014-01-03 13:30:00,
2014-01-03 05:35:00,48.2,41.0,30.94,SW,230,0.0,1.2,77,0.00,NA,NA,-99.99,BCS,2014-01-03 13:35:00,
2014-01-03 05:40:00,48.2,41.0,30.94,SW,222,1.2,1.5,76,0.00,NA,NA,-99.99,BCS,2014-01-03 13:40:00,
2014-01-03 05:50:00,48.0,40.0,30.95,SW,222,0.0,0.0,75,0.00,NA,NA,-99.99,BCS,2014-01-03 13:50:00,
2014-01-03 05:55:00,48.0,40.0,30.95,SW,222,0.0,0.0,74,0.00,NA,NA,-99.99,BCS,2014-01-03 13:55:00,
2014-01-03 06:00:00,47.9,40.0,30.95,SW,222,0.0,0.0,74,0.00,NA,NA,-99.99,BCS,2014-01-03 14:00:00,
2014-01-03 06:05:00,47.8,40.0,30.95,SW,222,0.0,0.0,74,0.00,NA,NA,-99.99,BCS,2014-01-03 14:05:00,
2014-01-03 06:15:00,47.4,39.0,30.96,SW,221,0.0,0.9,74,0.00,NA,NA,-99.99,BCS,2014-01-03 14:15:00,
2014-01-03 06:20:00,47.3,39.0,30.96,SW,221,0.9,1.2,75,0.00,NA,NA,-99.99,BCS,2014-01-03 14:20:00,
2014-01-03 06:25:00,47.4,39.0,30.96,SW,221,0.0,0.9,75,0.00,NA,NA,-99.99,BCS,2014-01-03 14:25:00,
2014-01-03 06:30:00,47.6,40.0,30.96,SW,221,0.0,0.0,75,0.00,NA,NA,-99.99,BCS,2014-01-03 14:30:00,
2014-01-03 06:35:00,47.8,40.0,30.96,SW,221,0.0,0.3,75,0.00,NA,NA,-99.99,BCS,2014-01-03 14:35:00,
2014-01-03 06:40:00,47.9,40.0,30.96,SW,221,0.0,0.3,74,0.00,NA,NA,-99.99,BCS,2014-01-03 14:40:00,
2014-01-03 06:45:00,47.9,40.0,30.96,SW,221,0.0,0.0,74,0.00,NA,NA,-99.99,BCS,2014-01-03 14:45:00,
2014-01-03 06:55:00,47.8,40.0,30.97,SW,222,0.0,0.0,74,0.00,NA,NA,-99.99,BCS,2014-01-03 14:55:00,
2014-01-03 07:00:00,47.5,40.0,30.97,SW,221,0.9,1.2,74,0.00,NA,NA,-99.99,BCS,2014-01-03 15:00:00,
2014-01-03 07:05:00,47.3,39.0,30.96,SW,221,1.2,1.5,75,0.00,NA,NA,-99.99,BCS,2014-01-03 15:05:00,
2014-01-03 07:10:00,47.3,39.0,30.96,SW,221,1.2,1.5,75,0.00,NA,NA,-99.99,BCS,2014-01-03 15:10:00,
2014-01-03 07:15:00,47.2,39.0,30.96,SW,218,0.9,1.5,76,0.00,NA,NA,-99.99,BCS,2014-01-03 15:15:00,
2014-01-03 07:20:00,47.1,40.0,30.96,SW,218,0.0,1.2,76,0.00,NA,NA,-99.99,BCS,2014-01-03 15:20:00,
2014-01-03 07:25:00,47.0,40.0,30.96,SW,218,0.0,0.0,76,0.00,NA,NA,-99.99,BCS,2014-01-03 15:25:00,
2014-01-03 07:30:00,47.2,40.0,30.97,SW,218,0.0,0.0,76,0.00,NA,NA,-99.99,BCS,2014-01-03 15:30:00,
2014-01-03 07:35:00,47.2,40.0,30.97,SW,218,0.0,0.0,76,0.00,NA,NA,-99.99,BCS,2014-01-03 15:35:00,
2014-01-03 07:40:00,47.3,40.0,30.97,SW,218,0.0,0.0,77,0.00,NA,NA,-99.99,BCS,2014-01-03 15:40:00,
2014-01-03 07:45:00,47.1,40.0,30.97,SW,217,1.2,1.2,77,0.00,NA,NA,-99.99,BCS,2014-01-03 15:45:00,
2014-01-03 07:50:00,47.1,40.0,30.97,SW,217,0.0,1.2,77,0.00,NA,NA,-99.99,BCS,2014-01-03 15:50:00,
2014-01-03 07:55:00,47.3,40.0,30.97,SW,217,0.9,1.5,77,0.00,NA,NA,-99.99,BCS,2014-01-03 15:55:00,
2014-01-03 08:05:00,47.9,41.0,30.97,SSW,212,0.0,0.9,76,0.00,NA,NA,-99.99,BCS,2014-01-03 16:05:00,
2014-01-03 08:10:00,48.2,41.0,30.97,SSW,212,0.0,0.3,76,0.00,NA,NA,-99.99,BCS,2014-01-03 16:10:00,
2014-01-03 08:15:00,48.5,41.0,30.97,SSW,212,0.0,0.3,76,0.00,NA,NA,-99.99,BCS,2014-01-03 16:15:00,
2014-01-03 08:20:00,49.0,41.0,30.97,SSW,212,0.0,0.0,75,0.00,NA,NA,-99.99,BCS,2014-01-03 16:20:00,
2014-01-03 08:30:00,49.3,42.0,30.97,SSW,196,1.2,2.1,76,0.00,NA,NA,-99.99,BCS,2014-01-03 16:30:00,
2014-01-03 08:35:00,50.3,43.0,30.97,South,184,2.1,2.4,76,0.00,NA,NA,-99.99,BCS,2014-01-03 16:35:00,
2014-01-03 08:40:00,51.4,43.0,30.97,South,179,0.9,2.4,73,0.00,NA,NA,-99.99,BCS,2014-01-03 16:40:00,
2014-01-03 08:45:00,51.8,43.0,30.96,South,179,0.0,1.5,71,0.00,NA,NA,-99.99,BCS,2014-01-03 16:45:00,
2014-01-03 08:50:00,52.3,43.0,30.97,South,179,0.9,1.2,71,0.00,NA,NA,-99.99,BCS,2014-01-03 16:50:00,
2014-01-03 08:55:00,52.5,43.0,30.97,South,179,0.6,1.2,70,0.00,NA,NA,-99.99,BCS,2014-01-03 16:55:00,
2014-01-03 09:00:00,52.8,44.0,30.97,South,179,0.0,1.2,70,0.00,NA,NA,-99.99,BCS,2014-01-03 17:00:00,
2014-01-03 09:05:00,52.8,43.0,30.97,South,179,0.9,1.2,70,0.00,NA,NA,-99.99,BCS,2014-01-03 17:05:00,
2014-01-03 09:10:00,52.5,43.0,30.97,NNE,19,1.8,2.4,70,0.00,NA,NA,-99.99,BCS,2014-01-03 17:10:00,
2014-01-03 09:15:00,52.5,43.0,30.97,NE,34,0.0,2.4,71,0.00,NA,NA,-99.99,BCS,2014-01-03 17:15:00,
2014-01-03 09:20:00,52.6,44.0,30.97,NE,34,0.0,0.9,71,0.00,NA,NA,-99.99,BCS,2014-01-03 17:20:00,
2014-01-03 09:25:00,52.8,44.0,30.98,NE,34,0.0,0.0,71,0.00,NA,NA,-99.99,BCS,2014-01-03 17:25:00,
2014-01-03 09:35:00,53.4,44.0,30.97,NNW,342,0.9,2.1,71,0.00,NA,NA,-99.99,BCS,2014-01-03 17:35:00,
2014-01-03 09:40:00,53.8,45.0,30.97,NW,321,3.3,3.3,70,0.00,NA,NA,-99.99,BCS,2014-01-03 17:40:00,
2014-01-03 09:45:00,54.3,44.0,30.97,NW,325,2.4,3.6,70,0.00,NA,NA,-99.99,BCS,2014-01-03 17:45:00,
2014-01-03 09:55:00,54.9,45.0,30.97,NNW,331,2.1,3.0,70,0.00,NA,NA,-99.99,BCS,2014-01-03 17:55:00,
2014-01-03 10:00:00,54.9,45.0,30.97,NNW,331,0.6,3.3,69,0.00,NA,NA,-99.99,BCS,2014-01-03 18:00:00,
2014-01-03 10:10:00,55.1,45.0,30.97,North,359,0.9,2.1,68,0.00,NA,NA,-99.99,BCS,2014-01-03 18:10:00,
2014-01-03 10:15:00,55.1,45.0,30.96,North,359,0.6,2.1,68,0.00,NA,NA,-99.99,BCS,2014-01-03 18:15:00,
2014-01-03 10:20:00,55.2,44.0,30.96,NNE,17,0.0,2.1,67,0.00,NA,NA,-99.99,BCS,2014-01-03 18:20:00,
2014-01-03 10:25:00,55.6,44.0,30.96,NNE,17,2.1,2.1,68,0.00,NA,NA,-99.99,BCS,2014-01-03 18:25:00,
2014-01-03 10:30:00,56.1,45.0,30.96,NNE,33,0.0,2.1,67,0.00,NA,NA,-99.99,BCS,2014-01-03 18:30:00,
2014-01-03 10:40:00,57.2,45.0,30.95,NNE,23,1.8,3.0,64,0.00,NA,NA,-99.99,BCS,2014-01-03 18:40:00,
2014-01-03 10:45:00,57.5,44.0,30.95,NE,51,0.9,3.3,62,0.00,NA,NA,-99.99,BCS,2014-01-03 18:45:00,
2014-01-03 10:50:00,58.2,44.0,30.94,North,11,1.2,2.7,61,0.00,NA,NA,-99.99,BCS,2014-01-03 18:50:00,
2014-01-03 10:55:00,58.8,45.0,30.94,North,350,1.5,2.7,59,0.00,NA,NA,-99.99,BCS,2014-01-03 18:55:00,
2014-01-03 11:00:00,59.1,44.0,30.94,NE,34,1.5,3.3,58,0.00,NA,NA,-99.99,BCS,2014-01-03 19:00:00,
2014-01-03 11:05:00,59.8,45.0,30.93,North,4,2.7,2.7,57,0.00,NA,NA,-99.99,BCS,2014-01-03 19:05:00,
2014-01-03 11:10:00,60.9,45.0,30.93,North,350,0.0,2.7,56,0.00,NA,NA,-99.99,BCS,2014-01-03 19:10:00,
2014-01-03 11:15:00,61.3,44.0,30.93,NNW,339,0.6,3.0,55,0.00,NA,NA,-99.99,BCS,2014-01-03 19:15:00,
2014-01-03 11:25:00,61.9,45.0,30.93,West,277,1.8,3.6,54,0.00,NA,NA,-99.99,BCS,2014-01-03 19:25:00,
2014-01-03 11:30:00,62.4,45.0,30.92,WNW,303,4.2,4.5,53,0.00,NA,NA,-99.99,BCS,2014-01-03 19:30:00,
2014-01-03 11:35:00,62.3,45.0,30.92,NNW,338,2.7,5.1,53,0.00,NA,NA,-99.99,BCS,2014-01-03 19:35:00,
2014-01-03 11:45:00,61.7,43.0,30.92,NW,306,1.5,7.5,50,0.00,NA,NA,-99.99,BCS,2014-01-03 19:45:00,
2014-01-03 11:50:00,62.1,43.0,30.92,NW,305,3.9,4.8,51,0.00,NA,NA,-99.99,BCS,2014-01-03 19:50:00,
2014-01-03 11:55:00,62.1,42.0,30.92,North,3,3.9,6.0,48,0.00,NA,NA,-99.99,BCS,2014-01-03 19:55:00,
2014-01-03 12:00:00,62.6,43.0,30.92,North,1,1.2,4.8,48,0.00,NA,NA,-99.99,BCS,2014-01-03 20:00:00,
2014-01-03 12:10:00,63.8,42.0,30.91,West,279,3.3,3.9,46,0.00,NA,NA,-99.99,BCS,2014-01-03 20:10:00,
2014-01-03 12:15:00,63.9,43.0,30.91,NNE,22,2.1,5.1,46,0.00,NA,NA,-99.99,BCS,2014-01-03 20:15:00,
2014-01-03 12:20:00,63.7,42.0,30.91,NNW,332,2.7,5.7,45,0.00,NA,NA,-99.99,BCS,2014-01-03 20:20:00,
2014-01-03 12:25:00,63.4,43.0,30.90,North,354,2.7,5.1,46,0.00,NA,NA,-99.99,BCS,2014-01-03 20:25:00,
2014-01-03 12:30:00,63.5,43.0,30.90,ENE,62,1.2,5.1,47,0.00,NA,NA,-99.99,BCS,2014-01-03 20:30:00,
2014-01-03 12:40:00,63.9,43.0,30.89,NE,39,1.2,3.3,47,0.00,NA,NA,-99.99,BCS,2014-01-03 20:40:00,
2014-01-03 12:50:00,63.9,43.0,30.89,ENE,72,0.9,3.3,46,0.00,NA,NA,-99.99,BCS,2014-01-03 20:50:00,
2014-01-03 12:55:00,64.2,43.0,30.89,NW,315,2.7,3.3,47,0.00,NA,NA,-99.99,BCS,2014-01-03 20:55:00,
2014-01-03 13:00:00,64.6,43.0,30.88,NNE,29,0.9,5.1,45,0.00,NA,NA,-99.99,BCS,2014-01-03 21:00:00,
2014-01-03 13:05:00,64.9,43.0,30.88,NW,323,1.5,4.2,44,0.00,NA,NA,-99.99,BCS,2014-01-03 21:05:00,
2014-01-03 13:10:00,65.4,43.0,30.88,North,8,0.9,3.6,43,0.00,NA,NA,-99.99,BCS,2014-01-03 21:10:00,
2014-01-03 13:15:00,65.8,43.0,30.88,NNW,340,1.8,3.3,43,0.00,NA,NA,-99.99,BCS,2014-01-03 21:15:00,
2014-01-03 13:20:00,66.0,43.0,30.88,NNW,344,2.1,4.2,43,0.00,NA,NA,-99.99,BCS,2014-01-03 21:20:00,
2014-01-03 13:30:00,66.8,44.0,30.88,East,80,0.6,5.1,43,0.00,NA,NA,-99.99,BCS,2014-01-03 21:30:00,
2014-01-03 13:35:00,66.8,44.0,30.88,NW,325,2.4,4.8,43,0.00,NA,NA,-99.99,BCS,2014-01-03 21:35:00,
2014-01-03 13:40:00,66.4,43.0,30.87,NNW,348,2.1,5.7,43,0.00,NA,NA,-99.99,BCS,2014-01-03 21:40:00,
2014-01-03 13:45:00,66.1,43.0,30.87,NE,39,2.1,4.2,44,0.00,NA,NA,-99.99,BCS,2014-01-03 21:45:00,
2014-01-03 13:50:00,66.6,45.0,30.87,South,180,0.9,3.9,45,0.00,NA,NA,-99.99,BCS,2014-01-03 21:50:00,
2014-01-03 14:00:00,66.4,45.0,30.87,NNW,343,2.4,4.8,47,0.00,NA,NA,-99.99,BCS,2014-01-03 22:00:00,
2014-01-03 14:05:00,66.0,45.0,30.87,NNE,18,1.5,4.8,48,0.00,NA,NA,-99.99,BCS,2014-01-03 22:05:00,
2014-01-03 14:10:00,65.8,46.0,30.87,NNE,25,3.3,4.2,49,0.00,NA,NA,-99.99,BCS,2014-01-03 22:10:00,
2014-01-03 14:15:00,65.2,45.0,30.87,ENE,57,3.6,4.2,49,0.00,NA,NA,-99.99,BCS,2014-01-03 22:15:00,
2014-01-03 14:20:00,65.1,46.0,30.87,NNE,16,2.1,4.2,50,0.00,NA,NA,-99.99,BCS,2014-01-03 22:20:00,
2014-01-03 14:30:00,64.5,46.0,30.87,North,4,1.5,4.5,52,0.00,NA,NA,-99.99,BCS,2014-01-03 22:30:00,
2014-01-03 14:35:00,64.2,46.0,30.87,North,354,1.2,3.6,52,0.00,NA,NA,-99.99,BCS,2014-01-03 22:35:00,
2014-01-03 14:40:00,63.9,46.0,30.88,NW,313,2.4,3.0,53,0.00,NA,NA,-99.99,BCS,2014-01-03 22:40:00,
2014-01-03 14:45:00,64.0,47.0,30.87,North,0,0.3,3.0,54,0.00,NA,NA,-99.99,BCS,2014-01-03 22:45:00,
2014-01-03 14:55:00,63.9,47.0,30.87,ENE,59,3.3,4.2,55,0.00,NA,NA,-99.99,BCS,2014-01-03 22:55:00,
2014-01-03 15:00:00,64.1,48.0,30.87,NNW,337,2.4,4.2,56,0.00,NA,NA,-99.99,BCS,2014-01-03 23:00:00,
2014-01-03 15:05:00,63.8,47.0,30.88,North,8,3.0,4.2,56,0.00,NA,NA,-99.99,BCS,2014-01-03 23:05:00,
2014-01-03 15:10:00,64.1,48.0,30.88,West,279,1.2,4.2,56,0.00,NA,NA,-99.99,BCS,2014-01-03 23:10:00,
2014-01-03 15:15:00,63.9,48.0,30.88,NNW,340,2.1,4.2,56,0.00,NA,NA,-99.99,BCS,2014-01-03 23:15:00,
2014-01-03 15:25:00,63.4,47.0,30.88,North,8,1.8,3.9,57,0.00,NA,NA,-99.99,BCS,2014-01-03 23:25:00,
2014-01-03 15:30:00,63.3,46.0,30.88,NNW,333,1.8,4.2,55,0.00,NA,NA,-99.99,BCS,2014-01-03 23:30:00,
2014-01-03 15:35:00,63.3,46.0,30.88,NW,324,2.4,4.2,54,0.00,NA,NA,-99.99,BCS,2014-01-03 23:35:00,
2014-01-03 15:40:00,63.5,47.0,30.88,North,355,1.5,3.3,55,0.00,NA,NA,-99.99,BCS,2014-01-03 23:40:00,
2014-01-03 15:45:00,63.6,47.0,30.88,NW,311,0.6,2.4,56,0.00,NA,NA,-99.99,BCS,2014-01-03 23:45:00,
2014-01-03 15:55:00,63.7,48.0,30.87,West,280,0.9,2.7,56,0.00,NA,NA,-99.99,BCS,2014-01-03 23:55:00,
2014-01-03 16:00:00,63.6,47.0,30.87,NNW,330,1.8,3.0,55,0.00,NA,NA,-99.99,BCS,2014-01-04 00:00:00,
2014-01-03 16:10:00,63.4,46.0,30.87,NW,323,0.9,3.0,54,0.00,NA,NA,-99.99,BCS,2014-01-04 00:10:00,
2014-01-03 16:15:00,63.1,47.0,30.87,NNW,327,1.2,2.1,55,0.00,NA,NA,-99.99,BCS,2014-01-04 00:15:00,
2014-01-03 16:20:00,62.9,47.0,30.87,NNW,329,0.9,2.1,56,0.00,NA,NA,-99.99,BCS,2014-01-04 00:20:00,
2014-01-03 16:25:00,62.6,47.0,30.87,NNW,329,0.0,1.5,57,0.00,NA,NA,-99.99,BCS,2014-01-04 00:25:00,
2014-01-03 16:30:00,62.2,47.0,30.87,NNW,329,0.0,0.0,58,0.00,NA,NA,-99.99,BCS,2014-01-04 00:30:00,
2014-01-03 16:35:00,61.8,47.0,30.86,NNW,329,0.0,0.0,59,0.00,NA,NA,-99.99,BCS,2014-01-04 00:35:00,
2014-01-03 16:40:00,61.3,47.0,30.87,NNW,329,0.0,0.0,60,0.00,NA,NA,-99.99,BCS,2014-01-04 00:40:00,
2014-01-03 16:45:00,60.9,47.0,30.87,NNW,329,0.0,0.0,60,0.00,NA,NA,-99.99,BCS,2014-01-04 00:45:00,
2014-01-03 16:50:00,60.5,47.0,30.87,NNW,329,0.0,0.0,62,0.00,NA,NA,-99.99,BCS,2014-01-04 00:50:00,
2014-01-03 17:00:00,59.6,48.0,30.87,North,354,0.0,0.3,65,0.00,NA,NA,-99.99,BCS,2014-01-04 01:00:00,
2014-01-03 17:10:00,58.9,48.0,30.87,NNE,22,0.0,1.8,67,0.00,NA,NA,-99.99,BCS,2014-01-04 01:10:00,
2014-01-03 17:15:00,58.6,48.0,30.86,NNE,22,0.0,0.0,67,0.00,NA,NA,-99.99,BCS,2014-01-04 01:15:00,
2014-01-03 17:20:00,58.1,47.0,30.87,NNE,23,0.0,1.2,68,0.00,NA,NA,-99.99,BCS,2014-01-04 01:20:00,
2014-01-03 17:25:00,57.8,48.0,30.87,NE,54,1.5,1.5,69,0.00,NA,NA,-99.99,BCS,2014-01-04 01:25:00,
2014-01-03 17:30:00,57.5,47.0,30.87,ENE,57,1.2,1.5,70,0.00,NA,NA,-99.99,BCS,2014-01-04 01:30:00,
2014-01-03 17:35:00,57.2,47.0,30.87,ENE,57,0.0,1.5,70,0.00,NA,NA,-99.99,BCS,2014-01-04 01:35:00,
2014-01-03 17:40:00,56.8,47.0,30.87,ENE,57,0.6,0.9,71,0.00,NA,NA,-99.99,BCS,2014-01-04 01:40:00,
2014-01-03 17:45:00,56.8,48.0,30.87,East,97,0.0,1.8,72,0.00,NA,NA,-99.99,BCS,2014-01-04 01:45:00,
2014-01-03 17:50:00,57.0,48.0,30.87,East,99,0.9,1.8,72,0.00,NA,NA,-99.99,BCS,2014-01-04 01:50:00,
2014-01-03 18:00:00,56.6,48.0,30.87,ESE,107,0.0,1.2,72,0.00,NA,NA,-99.99,BCS,2014-01-04 02:00:00,
2014-01-03 18:05:00,56.4,47.0,30.87,ESE,107,0.0,0.3,72,0.00,NA,NA,-99.99,BCS,2014-01-04 02:05:00,
2014-01-03 18:10:00,56.2,47.0,30.86,ESE,107,0.0,0.0,72,0.00,NA,NA,-99.99,BCS,2014-01-04 02:10:00,
2014-01-03 18:15:00,55.9,47.0,30.87,ESE,107,0.6,0.9,73,0.00,NA,NA,-99.99,BCS,2014-01-04 02:15:00,
2014-01-03 18:20:00,55.6,47.0,30.86,ESE,107,0.0,1.2,73,0.00,NA,NA,-99.99,BCS,2014-01-04 02:20:00,
2014-01-03 18:25:00,55.4,47.0,30.86,ESE,107,0.0,0.6,74,0.00,NA,NA,-99.99,BCS,2014-01-04 02:25:00,
2014-01-03 18:30:00,55.2,47.0,30.86,ESE,107,0.0,0.9,74,0.00,NA,NA,-99.99,BCS,2014-01-04 02:30:00,
2014-01-03 18:35:00,54.9,47.0,30.87,ESE,107,0.0,0.3,74,0.00,NA,NA,-99.99,BCS,2014-01-04 02:35:00,
2014-01-03 18:40:00,54.8,47.0,30.86,ESE,107,0.0,0.9,74,0.00,NA,NA,-99.99,BCS,2014-01-04 02:40:00,
2014-01-03 18:45:00,54.6,47.0,30.86,ESE,107,0.0,0.0,74,0.00,NA,NA,-99.99,BCS,2014-01-04 02:45:00,
2014-01-03 18:55:00,54.3,45.0,30.86,SSE,152,1.2,2.7,73,0.00,NA,NA,-99.99,BCS,2014-01-04 02:55:00,
2014-01-03 19:00:00,54.8,45.0,30.86,SSE,157,1.2,2.4,70,0.00,NA,NA,-99.99,BCS,2014-01-04 03:00:00,
2014-01-03 19:10:00,54.9,45.0,30.86,SSE,158,0.0,0.0,69,0.00,NA,NA,-99.99,BCS,2014-01-04 03:10:00,
2014-01-03 19:15:00,54.7,45.0,30.87,SSE,158,0.0,0.3,69,0.00,NA,NA,-99.99,BCS,2014-01-04 03:15:00,
2014-01-03 19:20:00,54.4,44.0,30.87,SSE,158,0.0,0.0,69,0.00,NA,NA,-99.99,BCS,2014-01-04 03:20:00,
2014-01-03 19:25:00,54.1,44.0,30.87,SSE,158,0.0,0.0,68,0.00,NA,NA,-99.99,BCS,2014-01-04 03:25:00,
2014-01-03 19:30:00,54.0,43.0,30.87,SSE,158,0.0,0.0,68,0.00,NA,NA,-99.99,BCS,2014-01-04 03:30:00,
2014-01-03 19:40:00,53.7,44.0,30.87,SSE,158,0.0,0.3,69,0.00,NA,NA,-99.99,BCS,2014-01-04 03:40:00,
2014-01-03 19:45:00,53.7,44.0,30.87,SSE,158,0.0,0.3,69,0.00,NA,NA,-99.99,BCS,2014-01-04 03:45:00,
2014-01-03 19:50:00,53.6,44.0,30.87,SSE,158,0.0,0.0,69,0.00,NA,NA,-99.99,BCS,2014-01-04 03:50:00,
2014-01-03 19:55:00,53.6,44.0,30.88,SSE,158,0.9,1.2,68,0.00,NA,NA,-99.99,BCS,2014-01-04 03:55:00,
2014-01-03 20:00:00,53.6,44.0,30.87,SSE,158,0.0,1.2,68,0.00,NA,NA,-99.99,BCS,2014-01-04 04:00:00,
2014-01-03 20:05:00,53.4,43.0,30.88,SSE,158,0.0,0.0,68,0.00,NA,NA,-99.99,BCS,2014-01-04 04:05:00,
2014-01-03 20:10:00,53.3,43.0,30.87,SSE,158,0.0,0.0,68,0.00,NA,NA,-99.99,BCS,2014-01-04 04:10:00,
2014-01-03 20:15:00,53.3,43.0,30.87,SSE,158,0.0,0.0,68,0.00,NA,NA,-99.99,BCS,2014-01-04 04:15:00,
2014-01-03 20:20:00,53.6,43.0,30.88,SSE,158,0.0,0.0,67,0.00,NA,NA,-99.99,BCS,2014-01-04 04:20:00,
2014-01-03 20:25:00,53.8,43.0,30.87,SSE,158,0.0,0.0,67,0.00,NA,NA,-99.99,BCS,2014-01-04 04:25:00,
2014-01-03 20:30:00,53.8,43.0,30.87,SSE,158,0.0,0.0,66,0.00,NA,NA,-99.99,BCS,2014-01-04 04:30:00,
2014-01-03 20:35:00,53.8,42.0,30.87,SSE,158,0.0,0.0,65,0.00,NA,NA,-99.99,BCS,2014-01-04 04:35:00,
2014-01-03 20:40:00,53.6,42.0,30.88,SSE,158,0.0,0.0,65,0.00,NA,NA,-99.99,BCS,2014-01-04 04:40:00,
2014-01-03 20:45:00,53.5,41.0,30.88,SSE,158,0.3,0.9,65,0.00,NA,NA,-99.99,BCS,2014-01-04 04:45:00,
2014-01-03 20:50:00,53.3,41.0,30.88,SSE,158,0.0,0.9,65,0.00,NA,NA,-99.99,BCS,2014-01-04 04:50:00,
2014-01-03 20:55:00,53.1,41.0,30.88,SSE,158,0.0,0.0,64,0.00,NA,NA,-99.99,BCS,2014-01-04 04:55:00,
2014-01-03 21:00:00,53.0,41.0,30.89,SSE,158,0.0,0.0,64,0.00,NA,NA,-99.99,BCS,2014-01-04 05:00:00,
2014-01-03 21:05:00,52.9,41.0,30.89,SSE,158,1.2,1.5,64,0.00,NA,NA,-99.99,BCS,2014-01-04 05:05:00,
2014-01-03 21:10:00,52.6,41.0,30.89,SSE,158,1.2,1.8,65,0.00,NA,NA,-99.99,BCS,2014-01-04 05:10:00,
2014-01-03 21:15:00,52.5,42.0,30.89,SSE,158,0.9,1.5,66,0.00,NA,NA,-99.99,BCS,2014-01-04 05:15:00,
2014-01-03 21:20:00,52.5,41.0,30.89,SSE,158,0.0,1.2,67,0.00,NA,NA,-99.99,BCS,2014-01-04 05:20:00,
2014-01-03 21:25:00,52.0,41.0,30.89,SSE,158,1.5,1.8,67,0.00,NA,NA,-99.99,BCS,2014-01-04 05:25:00,
2014-01-03 21:30:00,51.6,42.0,30.89,West,274,0.9,2.7,68,0.00,NA,NA,-99.99,BCS,2014-01-04 05:30:00,
2014-01-03 21:35:00,51.4,41.0,30.89,West,273,0.9,1.8,69,0.00,NA,NA,-99.99,BCS,2014-01-04 05:35:00,
2014-01-03 21:40:00,51.3,41.0,30.89,West,273,1.5,1.5,69,0.00,NA,NA,-99.99,BCS,2014-01-04 05:40:00,
2014-01-03 21:45:00,51.3,41.0,30.89,West,273,0.9,1.8,69,0.00,NA,NA,-99.99,BCS,2014-01-04 05:45:00,
2014-01-03 21:50:00,51.9,42.0,30.89,SW,230,1.2,1.8,69,0.00,NA,NA,-99.99,BCS,2014-01-04 05:50:00,
2014-01-03 21:55:00,52.2,42.0,30.89,SW,230,0.0,1.5,68,0.00,NA,NA,-99.99,BCS,2014-01-04 05:55:00,
2014-01-03 22:00:00,52.6,42.0,30.89,SW,230,0.0,0.0,67,0.00,NA,NA,-99.99,BCS,2014-01-04 06:00:00,
2014-01-03 22:05:00,52.6,42.0,30.89,SW,230,0.9,1.5,67,0.00,NA,NA,-99.99,BCS,2014-01-04 06:05:00,
2014-01-03 22:10:00,52.7,42.0,30.89,SW,230,0.6,1.5,66,0.00,NA,NA,-99.99,BCS,2014-01-04 06:10:00,
2014-01-03 22:15:00,53.3,42.0,30.89,SW,230,0.6,1.5,65,0.00,NA,NA,-99.99,BCS,2014-01-04 06:15:00,
2014-01-03 22:20:00,53.5,42.0,30.89,SW,228,1.5,1.5,64,0.00,NA,NA,-99.99,BCS,2014-01-04 06:20:00,
2014-01-03 22:25:00,53.6,42.0,30.89,SW,218,0.0,2.1,64,0.00,NA,NA,-99.99,BCS,2014-01-04 06:25:00,
2014-01-03 22:30:00,53.8,42.0,30.90,SW,218,0.0,0.6,63,0.00,NA,NA,-99.99,BCS,2014-01-04 06:30:00,
2014-01-03 22:40:00,53.3,41.0,30.91,SW,218,0.0,0.0,64,0.00,NA,NA,-99.99,BCS,2014-01-04 06:40:00,
2014-01-03 22:45:00,52.8,42.0,30.90,SW,218,0.0,0.3,65,0.00,NA,NA,-99.99,BCS,2014-01-04 06:45:00,
2014-01-03 22:55:00,51.7,42.0,30.90,South,169,1.5,2.4,69,0.00,NA,NA,-99.99,BCS,2014-01-04 06:55:00,
2014-01-03 23:00:00,51.6,42.0,30.90,South,169,1.8,2.1,68,0.00,NA,NA,-99.99,BCS,2014-01-04 07:00:00,
2014-01-03 23:05:00,51.6,41.0,30.90,South,189,2.1,2.1,69,0.00,NA,NA,-99.99,BCS,2014-01-04 07:05:00,
2014-01-03 23:10:00,52.2,42.0,30.90,South,169,1.2,2.1,69,0.00,NA,NA,-99.99,BCS,2014-01-04 07:10:00,
2014-01-03 23:15:00,52.3,42.0,30.89,South,169,0.0,1.8,68,0.00,NA,NA,-99.99,BCS,2014-01-04 07:15:00,
2014-01-03 23:25:00,52.1,42.0,30.89,South,170,0.0,1.2,68,0.00,NA,NA,-99.99,BCS,2014-01-04 07:25:00,
2014-01-03 23:30:00,52.0,42.0,30.89,South,170,0.0,0.0,69,0.00,NA,NA,-99.99,BCS,2014-01-04 07:30:00,
2014-01-03 23:35:00,52.0,42.0,30.90,South,170,0.0,0.0,69,0.00,NA,NA,-99.99,BCS,2014-01-04 07:35:00,
2014-01-03 23:40:00,51.7,42.0,30.89,South,170,0.0,0.0,70,0.00,NA,NA,-99.99,BCS,2014-01-04 07:40:00,
2014-01-03 23:45:00,51.5,42.0,30.89,South,170,0.0,0.0,70,0.00,NA,NA,-99.99,BCS,2014-01-04 07:45:00,
2014-01-03 23:50:00,51.0,41.0,30.89,South,170,0.0,0.0,70,0.00,NA,NA,-99.99,BCS,2014-01-04 07:50:00,
2014-01-03 23:55:00,50.9,42.0,30.89,South,170,0.0,0.0,71,0.00,NA,NA,-99.99,BCS,2014-01-04 07:55:00,